Time,TemperatureF,DewpointF,PressureIn,WindDirection,WindDirectionDegrees,WindSpeedMPH,WindSpeedGustMPH,Humidity,HourlyPrecipIn,Conditions,Clouds,dailyrainin,SoftwareType,DateUTC
2013-06-14 00:00:00,60.5,38.5,29.94,West,270,0.0,-999.0,44,0.00,,,0.00,Wunderground v.1.15,2013-06-14 07:00:00,
2013-06-14 00:04:00,60.5,38.0,29.94,West,281,0.0,-999.0,44,-99.99,,,0.00,weatherlink.com 1.10,2013-06-14 07:04:00,
2013-06-14 00:05:00,60.5,38.5,29.94,West,270,0.0,-999.0,44,0.00,,,0.00,Wunderground v.1.15,2013-06-14 07:05:00,
2013-06-14 00:10:00,60.5,38.5,29.94,West,270,0.0,-999.0,44,0.00,,,0.00,Wunderground v.1.15,2013-06-14 07:10:00,
2013-06-14 00:15:00,60.4,37.8,29.94,West,270,0.0,-999.0,43,0.00,,,0.00,Wunderground v.1.15,2013-06-14 07:15:00,
2013-06-14 00:18:00,60.4,38.0,29.94,West,281,0.0,-999.0,43,-99.99,,,0.00,weatherlink.com 1.10,2013-06-14 07:18:00,
2013-06-14 00:20:00,60.4,37.8,29.94,West,270,0.0,-999.0,43,0.00,,,0.00,Wunderground v.1.15,2013-06-14 07:20:00,
2013-06-14 00:25:00,60.6,38.0,29.93,West,270,0.0,-999.0,43,0.00,,,0.00,Wunderground v.1.15,2013-06-14 07:25:00,
2013-06-14 00:30:00,60.6,38.0,29.93,West,270,0.0,-999.0,43,0.00,,,0.00,Wunderground v.1.15,2013-06-14 07:30:00,
2013-06-14 00:34:00,60.8,38.0,29.93,West,281,0.0,-999.0,43,-99.99,,,0.00,weatherlink.com 1.10,2013-06-14 07:34:00,
2013-06-14 00:35:00,60.8,38.1,29.93,West,270,0.0,-999.0,43,0.00,,,0.00,Wunderground v.1.15,2013-06-14 07:35:00,
2013-06-14 00:40:00,60.8,38.1,29.93,West,270,0.0,-999.0,43,0.00,,,0.00,Wunderground v.1.15,2013-06-14 07:40:00,
2013-06-14 00:45:00,60.8,38.7,29.93,West,270,0.0,-999.0,44,0.00,,,0.00,Wunderground v.1.15,2013-06-14 07:45:00,
2013-06-14 00:49:00,60.8,39.0,29.93,West,281,0.0,-999.0,44,-99.99,,,0.00,weatherlink.com 1.10,2013-06-14 07:49:00,
2013-06-14 00:50:00,60.8,38.7,29.93,West,270,0.0,-999.0,44,0.00,,,0.00,Wunderground v.1.15,2013-06-14 07:50:00,
2013-06-14 00:55:00,60.7,39.2,29.92,West,270,0.0,-999.0,45,0.00,,,0.00,Wunderground v.1.15,2013-06-14 07:55:00,
2013-06-14 01:00:00,60.7,39.2,29.92,West,270,0.0,-999.0,45,0.00,,,0.00,Wunderground v.1.15,2013-06-14 08:00:00,
2013-06-14 01:04:00,60.5,39.0,29.92,West,281,0.0,-999.0,45,-99.99,,,0.00,weatherlink.com 1.10,2013-06-14 08:04:00,
2013-06-14 01:05:00,60.5,39.0,29.92,West,270,0.0,-999.0,45,0.00,,,0.00,Wunderground v.1.15,2013-06-14 08:05:00,
2013-06-14 01:10:00,60.5,39.0,29.92,West,270,0.0,-999.0,45,0.00,,,0.00,Wunderground v.1.15,2013-06-14 08:10:00,
2013-06-14 01:15:00,60.4,38.9,29.92,West,270,0.0,-999.0,45,0.00,,,0.00,Wunderground v.1.15,2013-06-14 08:15:00,
2013-06-14 01:19:00,60.4,39.0,29.92,West,281,2.0,-999.0,45,-99.99,,,0.00,weatherlink.com 1.10,2013-06-14 08:19:00,
2013-06-14 01:20:00,60.4,38.9,29.92,West,270,0.0,-999.0,45,0.00,,,0.00,Wunderground v.1.15,2013-06-14 08:20:00,
2013-06-14 01:25:00,60.5,39.6,29.92,West,270,0.0,-999.0,46,0.00,,,0.00,Wunderground v.1.15,2013-06-14 08:25:00,
2013-06-14 01:30:00,60.5,39.6,29.92,West,270,0.0,-999.0,46,0.00,,,0.00,Wunderground v.1.15,2013-06-14 08:30:00,
2013-06-14 01:34:00,60.3,39.0,29.92,West,281,0.0,-999.0,46,-99.99,,,0.00,weatherlink.com 1.10,2013-06-14 08:34:00,
2013-06-14 01:35:00,60.3,39.4,29.92,West,270,0.0,-999.0,46,0.00,,,0.00,Wunderground v.1.15,2013-06-14 08:35:00,
2013-06-14 01:40:00,60.3,39.4,29.92,West,270,0.0,-999.0,46,0.00,,,0.00,Wunderground v.1.15,2013-06-14 08:40:00,
2013-06-14 01:45:00,60.0,39.1,29.91,West,270,0.0,-999.0,46,0.00,,,0.00,Wunderground v.1.15,2013-06-14 08:45:00,
2013-06-14 01:49:00,59.9,39.0,29.91,West,281,0.0,-999.0,46,-99.99,,,0.00,weatherlink.com 1.10,2013-06-14 08:49:00,
2013-06-14 01:50:00,60.0,39.1,29.91,West,270,0.0,-999.0,46,0.00,,,0.00,Wunderground v.1.15,2013-06-14 08:50:00,
2013-06-14 01:55:00,59.7,39.4,29.90,West,270,0.0,-999.0,47,0.00,,,0.00,Wunderground v.1.15,2013-06-14 08:55:00,
2013-06-14 02:00:00,59.7,39.4,29.90,West,270,0.0,-999.0,47,0.00,,,0.00,Wunderground v.1.15,2013-06-14 09:00:00,
2013-06-14 02:04:00,59.4,39.0,29.90,West,281,0.0,-999.0,47,-99.99,,,0.00,weatherlink.com 1.10,2013-06-14 09:04:00,
2013-06-14 02:05:00,59.3,39.1,29.90,West,270,0.0,-999.0,47,0.00,,,0.00,Wunderground v.1.15,2013-06-14 09:05:00,
2013-06-14 02:10:00,59.3,39.1,29.90,West,270,0.0,-999.0,47,0.00,,,0.00,Wunderground v.1.15,2013-06-14 09:10:00,
2013-06-14 02:15:00,58.9,38.7,29.90,West,270,0.0,-999.0,47,0.00,,,0.00,Wunderground v.1.15,2013-06-14 09:15:00,
2013-06-14 02:19:00,58.9,39.0,29.90,West,281,0.0,-999.0,48,-99.99,,,0.00,weatherlink.com 1.10,2013-06-14 09:19:00,
2013-06-14 02:20:00,58.9,38.7,29.90,West,270,0.0,-999.0,47,0.00,,,0.00,Wunderground v.1.15,2013-06-14 09:20:00,
2013-06-14 02:25:00,58.8,39.1,29.89,N/A,-737280,0.0,-999.0,48,0.00,,,0.00,Wunderground v.1.15,2013-06-14 09:25:00,
2013-06-14 02:30:00,58.8,39.1,29.89,N/A,-737280,0.0,-999.0,48,0.00,,,0.00,Wunderground v.1.15,2013-06-14 09:30:00,
2013-06-14 02:34:00,58.5,39.0,29.89,West,281,0.0,-999.0,48,-99.99,,,0.00,weatherlink.com 1.10,2013-06-14 09:34:00,
2013-06-14 02:35:00,58.4,38.8,29.89,West,270,0.0,-999.0,48,0.00,,,0.00,Wunderground v.1.15,2013-06-14 09:35:00,
2013-06-14 02:40:00,58.4,38.8,29.89,West,270,0.0,-999.0,48,0.00,,,0.00,Wunderground v.1.15,2013-06-14 09:40:00,
2013-06-14 02:45:00,58.0,38.9,29.89,West,270,0.0,-999.0,49,0.00,,,0.00,Wunderground v.1.15,2013-06-14 09:45:00,
2013-06-14 02:49:00,57.9,39.0,29.89,West,281,0.0,-999.0,49,-99.99,,,0.00,weatherlink.com 1.10,2013-06-14 09:49:00,
2013-06-14 02:50:00,58.0,38.9,29.89,West,270,0.0,-999.0,49,0.00,,,0.00,Wunderground v.1.15,2013-06-14 09:50:00,
2013-06-14 02:55:00,58.1,38.5,29.89,West,270,0.0,-999.0,48,0.00,,,0.00,Wunderground v.1.15,2013-06-14 09:55:00,
2013-06-14 03:00:00,58.1,38.5,29.89,West,270,0.0,-999.0,48,0.00,,,0.00,Wunderground v.1.15,2013-06-14 10:00:00,
2013-06-14 03:04:00,58.1,38.0,29.89,West,281,0.0,-999.0,48,-99.99,,,0.00,weatherlink.com 1.10,2013-06-14 10:04:00,
2013-06-14 03:05:00,58.2,39.1,29.89,West,270,0.0,-999.0,49,0.00,,,0.00,Wunderground v.1.15,2013-06-14 10:05:00,
2013-06-14 03:10:00,58.2,39.1,29.89,West,270,0.0,-999.0,49,0.00,,,0.00,Wunderground v.1.15,2013-06-14 10:10:00,
2013-06-14 03:15:00,58.1,38.5,29.88,West,270,1.0,-999.0,48,0.00,,,0.00,Wunderground v.1.15,2013-06-14 10:15:00,
2013-06-14 03:19:00,58.0,38.0,29.88,West,281,0.0,-999.0,48,-99.99,,,0.00,weatherlink.com 1.10,2013-06-14 10:19:00,
2013-06-14 03:20:00,58.1,38.5,29.88,West,270,1.0,-999.0,48,0.00,,,0.00,Wunderground v.1.15,2013-06-14 10:20:00,
2013-06-14 03:25:00,58.1,38.0,29.88,WNW,293,0.0,-999.0,47,0.00,,,0.00,Wunderground v.1.15,2013-06-14 10:25:00,
2013-06-14 03:30:00,58.1,38.0,29.88,WNW,293,0.0,-999.0,47,0.00,,,0.00,Wunderground v.1.15,2013-06-14 10:30:00,
2013-06-14 03:34:00,58.0,38.0,29.88,WNW,283,2.0,-999.0,47,-99.99,,,0.00,weatherlink.com 1.10,2013-06-14 10:34:00,
2013-06-14 03:35:00,58.0,37.9,29.88,WNW,293,0.0,-999.0,47,0.00,,,0.00,Wunderground v.1.15,2013-06-14 10:35:00,
2013-06-14 03:40:00,58.0,37.9,29.88,WNW,293,0.0,-999.0,47,0.00,,,0.00,Wunderground v.1.15,2013-06-14 10:40:00,
2013-06-14 03:45:00,57.7,38.1,29.88,WNW,293,0.0,-999.0,48,0.00,,,0.00,Wunderground v.1.15,2013-06-14 10:45:00,
2013-06-14 03:50:00,57.5,38.0,29.88,WNW,283,0.0,-999.0,48,-99.99,,,0.00,weatherlink.com 1.10,2013-06-14 10:50:00,
2013-06-14 03:55:00,57.1,38.6,29.88,WNW,293,0.0,-999.0,50,0.00,,,0.00,Wunderground v.1.15,2013-06-14 10:55:00,
2013-06-14 04:00:00,57.1,38.6,29.88,WNW,293,0.0,-999.0,50,0.00,,,0.00,Wunderground v.1.15,2013-06-14 11:00:00,
2013-06-14 04:04:00,56.6,38.0,29.88,WNW,283,0.0,-999.0,50,-99.99,,,0.00,weatherlink.com 1.10,2013-06-14 11:04:00,
2013-06-14 04:05:00,56.4,39.0,29.88,WNW,293,0.0,-999.0,52,0.00,,,0.00,Wunderground v.1.15,2013-06-14 11:05:00,
2013-06-14 04:10:00,56.4,39.0,29.88,WNW,293,0.0,-999.0,52,0.00,,,0.00,Wunderground v.1.15,2013-06-14 11:10:00,
2013-06-14 04:15:00,55.6,39.2,29.88,WNW,293,0.0,-999.0,54,0.00,,,0.00,Wunderground v.1.15,2013-06-14 11:15:00,
2013-06-14 04:19:00,55.3,38.0,29.88,WNW,283,0.0,-999.0,53,-99.99,,,0.00,weatherlink.com 1.10,2013-06-14 11:19:00,
2013-06-14 04:20:00,55.6,39.2,29.88,WNW,293,0.0,-999.0,54,0.00,,,0.00,Wunderground v.1.15,2013-06-14 11:20:00,
2013-06-14 04:25:00,54.8,38.9,29.88,N/A,-737280,0.0,-999.0,55,0.00,,,0.00,Wunderground v.1.15,2013-06-14 11:25:00,
2013-06-14 04:30:00,54.8,38.9,29.88,N/A,-737280,0.0,-999.0,55,0.00,,,0.00,Wunderground v.1.15,2013-06-14 11:30:00,
2013-06-14 04:35:00,54.2,39.0,29.88,WNW,283,0.0,-999.0,56,-99.99,,,0.00,weatherlink.com 1.10,2013-06-14 11:35:00,
2013-06-14 04:40:00,54.1,39.2,29.88,N/A,-737280,0.0,-999.0,57,0.00,,,0.00,Wunderground v.1.15,2013-06-14 11:40:00,
2013-06-14 04:45:00,53.3,39.3,29.88,WNW,293,0.0,-999.0,59,0.00,,,0.00,Wunderground v.1.15,2013-06-14 11:45:00,
2013-06-14 04:49:00,53.0,38.0,29.88,WNW,283,0.0,-999.0,58,-99.99,,,0.00,weatherlink.com 1.10,2013-06-14 11:49:00,
2013-06-14 04:50:00,53.3,39.3,29.88,WNW,293,0.0,-999.0,59,0.00,,,0.00,Wunderground v.1.15,2013-06-14 11:50:00,
2013-06-14 04:55:00,52.6,38.2,29.88,N/A,-737280,0.0,-999.0,58,0.00,,,0.00,Wunderground v.1.15,2013-06-14 11:55:00,
2013-06-14 05:00:00,52.6,38.2,29.88,N/A,-737280,0.0,-999.0,58,0.00,,,0.00,Wunderground v.1.15,2013-06-14 12:00:00,
2013-06-14 05:04:00,52.1,38.0,29.87,WNW,283,0.0,-999.0,59,-99.99,,,0.00,weatherlink.com 1.10,2013-06-14 12:04:00,
2013-06-14 05:05:00,52.1,38.6,29.88,N/A,-737280,0.0,-999.0,60,0.00,,,0.00,Wunderground v.1.15,2013-06-14 12:05:00,
2013-06-14 05:10:00,52.1,38.6,29.88,N/A,-737280,0.0,-999.0,60,0.00,,,0.00,Wunderground v.1.15,2013-06-14 12:10:00,
2013-06-14 05:15:00,51.5,38.5,29.88,WNW,293,0.0,-999.0,61,0.00,,,0.00,Wunderground v.1.15,2013-06-14 12:15:00,
2013-06-14 05:20:00,51.3,39.0,29.88,WNW,283,0.0,-999.0,62,-99.99,,,0.00,weatherlink.com 1.10,2013-06-14 12:20:00,
2013-06-14 05:25:00,51.0,39.2,29.88,N/A,-737280,0.0,-999.0,64,0.00,,,0.00,Wunderground v.1.15,2013-06-14 12:25:00,
2013-06-14 05:30:00,51.0,39.2,29.88,N/A,-737280,0.0,-999.0,64,0.00,,,0.00,Wunderground v.1.15,2013-06-14 12:30:00,
2013-06-14 05:35:00,50.6,38.0,29.88,WNW,283,0.0,-999.0,63,-99.99,,,0.00,weatherlink.com 1.10,2013-06-14 12:35:00,
2013-06-14 05:40:00,50.5,38.8,29.88,WNW,293,0.0,-999.0,64,0.00,,,0.00,Wunderground v.1.15,2013-06-14 12:40:00,
2013-06-14 05:45:00,50.1,38.4,29.88,WNW,293,0.0,-999.0,64,0.00,,,0.00,Wunderground v.1.15,2013-06-14 12:45:00,
2013-06-14 05:49:00,50.0,38.0,29.88,WNW,283,0.0,-999.0,64,-99.99,,,0.00,weatherlink.com 1.10,2013-06-14 12:49:00,
2013-06-14 05:50:00,50.1,38.4,29.88,WNW,293,0.0,-999.0,64,0.00,,,0.00,Wunderground v.1.15,2013-06-14 12:50:00,
2013-06-14 05:55:00,49.8,38.5,29.88,WNW,293,0.0,-999.0,65,0.00,,,0.00,Wunderground v.1.15,2013-06-14 12:55:00,
2013-06-14 06:00:00,49.8,38.5,29.88,WNW,293,0.0,-999.0,65,0.00,,,0.00,Wunderground v.1.15,2013-06-14 13:00:00,
2013-06-14 06:05:00,49.8,38.0,29.88,WNW,283,0.0,-999.0,65,-99.99,,,0.00,weatherlink.com 1.10,2013-06-14 13:05:00,
2013-06-14 06:10:00,49.8,38.1,29.88,N/A,-737280,0.0,-999.0,64,0.00,,,0.00,Wunderground v.1.15,2013-06-14 13:10:00,
2013-06-14 06:15:00,49.8,38.9,29.88,N/A,-737280,0.0,-999.0,66,0.00,,,0.00,Wunderground v.1.15,2013-06-14 13:15:00,
2013-06-14 06:20:00,49.9,38.0,29.88,WNW,283,0.0,-999.0,65,-99.99,,,0.00,weatherlink.com 1.10,2013-06-14 13:20:00,
2013-06-14 06:25:00,50.0,39.1,29.88,WNW,293,0.0,-999.0,66,0.00,,,0.00,Wunderground v.1.15,2013-06-14 13:25:00,
2013-06-14 06:30:00,50.0,39.1,29.88,WNW,293,0.0,-999.0,66,0.00,,,0.00,Wunderground v.1.15,2013-06-14 13:30:00,
2013-06-14 06:35:00,50.1,39.0,29.88,WNW,283,0.0,-999.0,66,-99.99,,,0.00,weatherlink.com 1.10,2013-06-14 13:35:00,
2013-06-14 06:40:00,50.2,39.7,29.88,N/A,-737280,0.0,-999.0,67,0.00,,,0.00,Wunderground v.1.15,2013-06-14 13:40:00,
2013-06-14 06:45:00,50.6,38.9,29.88,WNW,293,0.0,-999.0,64,0.00,,,0.00,Wunderground v.1.15,2013-06-14 13:45:00,
2013-06-14 06:49:00,50.9,39.0,29.88,WNW,283,0.0,-999.0,64,-99.99,,,0.00,weatherlink.com 1.10,2013-06-14 13:49:00,
2013-06-14 06:50:00,50.6,38.9,29.88,WNW,293,0.0,-999.0,64,0.00,,,0.00,Wunderground v.1.15,2013-06-14 13:50:00,
2013-06-14 06:55:00,51.3,41.1,29.88,N/A,-737280,0.0,-999.0,68,0.00,,,0.00,Wunderground v.1.15,2013-06-14 13:55:00,
2013-06-14 07:00:00,51.3,41.1,29.88,N/A,-737280,0.0,-999.0,68,0.00,,,0.00,Wunderground v.1.15,2013-06-14 14:00:00,
2013-06-14 07:05:00,51.9,41.0,29.88,WNW,283,0.0,-999.0,66,-99.99,,,0.00,weatherlink.com 1.10,2013-06-14 14:05:00,
2013-06-14 07:10:00,52.0,41.0,29.88,N/A,-737280,0.0,-999.0,66,0.00,,,0.00,Wunderground v.1.15,2013-06-14 14:10:00,
2013-06-14 07:15:00,53.1,42.4,29.88,WNW,293,0.0,-999.0,67,0.00,,,0.00,Wunderground v.1.15,2013-06-14 14:15:00,
2013-06-14 07:20:00,53.6,42.0,29.88,WNW,283,0.0,-999.0,66,-99.99,,,0.00,weatherlink.com 1.10,2013-06-14 14:20:00,
2013-06-14 07:25:00,54.4,43.3,29.88,N/A,-737280,0.0,-999.0,66,0.00,,,0.00,Wunderground v.1.15,2013-06-14 14:25:00,
2013-06-14 07:30:00,54.4,43.3,29.88,N/A,-737280,0.0,-999.0,66,0.00,,,0.00,Wunderground v.1.15,2013-06-14 14:30:00,
2013-06-14 07:35:00,55.7,44.0,29.88,WNW,283,0.0,-999.0,65,-99.99,,,0.00,weatherlink.com 1.10,2013-06-14 14:35:00,
2013-06-14 07:40:00,55.8,43.4,29.88,WNW,293,0.0,-999.0,63,0.00,,,0.00,Wunderground v.1.15,2013-06-14 14:40:00,
2013-06-14 07:45:00,57.1,41.1,29.88,WNW,293,0.0,-999.0,55,0.00,,,0.00,Wunderground v.1.15,2013-06-14 14:45:00,
2013-06-14 07:49:00,57.7,42.0,29.87,WNW,283,0.0,-999.0,57,-99.99,,,0.00,weatherlink.com 1.10,2013-06-14 14:49:00,
2013-06-14 07:50:00,57.1,41.1,29.88,WNW,293,0.0,-999.0,55,0.00,,,0.00,Wunderground v.1.15,2013-06-14 14:50:00,
2013-06-14 07:55:00,58.7,41.1,29.87,WNW,293,0.0,-999.0,52,0.00,,,0.00,Wunderground v.1.15,2013-06-14 14:55:00,
2013-06-14 08:00:00,58.7,41.1,29.87,WNW,293,0.0,-999.0,52,0.00,,,0.00,Wunderground v.1.15,2013-06-14 15:00:00,
2013-06-14 08:05:00,60.4,40.0,29.88,WNW,283,0.0,-999.0,48,-99.99,,,0.00,weatherlink.com 1.10,2013-06-14 15:05:00,
2013-06-14 08:10:00,60.6,38.0,29.88,WNW,293,0.0,-999.0,43,0.00,,,0.00,Wunderground v.1.15,2013-06-14 15:10:00,
2013-06-14 08:15:00,62.3,38.9,29.88,WNW,293,0.0,-999.0,42,0.00,,,0.00,Wunderground v.1.15,2013-06-14 15:15:00,
2013-06-14 08:20:00,63.0,40.0,29.88,WNW,283,0.0,-999.0,43,-99.99,,,0.00,weatherlink.com 1.10,2013-06-14 15:20:00,
2013-06-14 08:25:00,64.3,39.4,29.88,WNW,293,1.0,-999.0,40,0.00,,,0.00,Wunderground v.1.15,2013-06-14 15:25:00,
2013-06-14 08:30:00,64.3,39.4,29.88,WNW,293,1.0,-999.0,40,0.00,,,0.00,Wunderground v.1.15,2013-06-14 15:30:00,
2013-06-14 08:35:00,66.2,40.0,29.88,WNW,283,0.0,-999.0,39,-99.99,,,0.00,weatherlink.com 1.10,2013-06-14 15:35:00,
2013-06-14 08:40:00,66.3,40.6,29.88,WNW,293,0.0,-999.0,39,0.00,,,0.00,Wunderground v.1.15,2013-06-14 15:40:00,
2013-06-14 08:45:00,68.0,42.1,29.88,WNW,293,0.0,-999.0,39,0.00,,,0.00,Wunderground v.1.15,2013-06-14 15:45:00,
2013-06-14 08:50:00,68.5,41.0,29.88,WNW,283,0.0,-999.0,37,-99.99,,,0.00,weatherlink.com 1.10,2013-06-14 15:50:00,
2013-06-14 08:55:00,69.4,40.5,29.89,West,270,1.0,-999.0,35,0.00,,,0.00,Wunderground v.1.15,2013-06-14 15:55:00,
2013-06-14 09:00:00,69.4,40.5,29.89,West,270,1.0,-999.0,35,0.00,,,0.00,Wunderground v.1.15,2013-06-14 16:00:00,
2013-06-14 09:05:00,70.2,41.0,29.88,West,281,0.0,-999.0,35,-99.99,,,0.00,weatherlink.com 1.10,2013-06-14 16:05:00,
2013-06-14 09:10:00,70.3,40.6,29.89,West,270,1.0,-999.0,34,0.00,,,0.00,Wunderground v.1.15,2013-06-14 16:10:00,
2013-06-14 09:15:00,71.1,42.0,29.88,West,270,0.0,-999.0,35,0.00,,,0.00,Wunderground v.1.15,2013-06-14 16:15:00,
2013-06-14 09:20:00,71.4,42.0,29.88,West,281,0.0,-999.0,35,-99.99,,,0.00,weatherlink.com 1.10,2013-06-14 16:20:00,
2013-06-14 09:25:00,72.1,42.2,29.88,West,270,1.0,-999.0,34,0.00,,,0.00,Wunderground v.1.15,2013-06-14 16:25:00,
2013-06-14 09:30:00,72.1,42.2,29.88,West,270,1.0,-999.0,34,0.00,,,0.00,Wunderground v.1.15,2013-06-14 16:30:00,
2013-06-14 09:35:00,73.2,42.0,29.88,West,279,0.0,-999.0,32,-99.99,,,0.00,weatherlink.com 1.10,2013-06-14 16:35:00,
2013-06-14 09:40:00,73.3,42.4,29.88,West,270,1.0,-999.0,33,0.00,,,0.00,Wunderground v.1.15,2013-06-14 16:40:00,
2013-06-14 09:45:00,74.1,43.9,29.88,West,270,1.0,-999.0,34,0.00,,,0.00,Wunderground v.1.15,2013-06-14 16:45:00,
2013-06-14 09:50:00,74.3,46.0,29.88,West,275,0.0,-999.0,36,-99.99,,,0.00,weatherlink.com 1.10,2013-06-14 16:50:00,
2013-06-14 09:55:00,74.4,43.4,29.88,West,270,1.0,-999.0,33,0.00,,,0.00,Wunderground v.1.15,2013-06-14 16:55:00,
2013-06-14 10:00:00,74.4,43.4,29.88,West,270,1.0,-999.0,33,0.00,,,0.00,Wunderground v.1.15,2013-06-14 17:00:00,
2013-06-14 10:05:00,74.8,44.0,29.88,West,266,0.0,-999.0,33,-99.99,,,0.00,weatherlink.com 1.10,2013-06-14 17:05:00,
2013-06-14 10:10:00,74.8,42.1,29.88,West,270,1.0,-999.0,31,0.00,,,0.00,Wunderground v.1.15,2013-06-14 17:10:00,
2013-06-14 10:15:00,75.4,44.3,29.88,West,270,1.0,-999.0,33,0.00,,,0.00,Wunderground v.1.15,2013-06-14 17:15:00,
2013-06-14 10:20:00,75.4,45.0,29.88,West,259,0.0,-999.0,34,-99.99,,,0.00,weatherlink.com 1.10,2013-06-14 17:20:00,
2013-06-14 10:25:00,75.8,43.0,29.88,WSW,248,0.0,-999.0,31,0.00,,,0.00,Wunderground v.1.15,2013-06-14 17:25:00,
2013-06-14 10:30:00,75.8,43.0,29.88,WSW,248,0.0,-999.0,31,0.00,,,0.00,Wunderground v.1.15,2013-06-14 17:30:00,
2013-06-14 10:35:00,76.6,44.0,29.88,WSW,258,0.0,-999.0,31,-99.99,,,0.00,weatherlink.com 1.10,2013-06-14 17:35:00,
2013-06-14 10:40:00,76.6,42.0,29.88,WSW,248,1.0,-999.0,29,0.00,,,0.00,Wunderground v.1.15,2013-06-14 17:40:00,
2013-06-14 10:45:00,77.1,42.4,29.88,SW,225,1.0,-999.0,29,0.00,,,0.00,Wunderground v.1.15,2013-06-14 17:45:00,
2013-06-14 10:50:00,77.2,43.0,29.88,SW,227,0.0,-999.0,30,-99.99,,,0.00,weatherlink.com 1.10,2013-06-14 17:50:00,
2013-06-14 10:55:00,77.1,45.0,29.88,SW,225,1.0,-999.0,32,0.00,,,0.00,Wunderground v.1.15,2013-06-14 17:55:00,
2013-06-14 11:00:00,77.1,45.0,29.88,SW,225,1.0,-999.0,32,0.00,,,0.00,Wunderground v.1.15,2013-06-14 18:00:00,
2013-06-14 11:05:00,78.0,43.2,29.88,SW,225,1.0,-999.0,29,0.00,,,0.00,Wunderground v.1.15,2013-06-14 18:05:00,
2013-06-14 11:06:00,78.0,44.0,29.88,SW,230,1.0,-999.0,30,-99.99,,,0.00,weatherlink.com 1.10,2013-06-14 18:06:00,
2013-06-14 11:10:00,78.0,43.2,29.88,SW,225,1.0,-999.0,29,0.00,,,0.00,Wunderground v.1.15,2013-06-14 18:10:00,
2013-06-14 11:15:00,79.2,42.3,29.88,SSW,203,1.0,-999.0,27,0.00,,,0.00,Wunderground v.1.15,2013-06-14 18:15:00,
2013-06-14 11:20:00,79.8,43.0,29.88,SSW,200,0.0,-999.0,27,-99.99,,,0.00,weatherlink.com 1.10,2013-06-14 18:20:00,
2013-06-14 11:25:00,80.4,43.3,29.88,SSW,203,2.0,-999.0,27,0.00,,,0.00,Wunderground v.1.15,2013-06-14 18:25:00,
2013-06-14 11:30:00,80.4,43.3,29.88,SSW,203,2.0,-999.0,27,0.00,,,0.00,Wunderground v.1.15,2013-06-14 18:30:00,
2013-06-14 11:35:00,80.8,44.0,29.88,SSW,196,1.0,-999.0,27,-99.99,,,0.00,weatherlink.com 1.10,2013-06-14 18:35:00,
2013-06-14 11:40:00,80.8,41.7,29.87,SSW,203,1.0,-999.0,25,0.00,,,0.00,Wunderground v.1.15,2013-06-14 18:40:00,
2013-06-14 11:45:00,81.0,42.9,29.87,SSW,203,1.0,-999.0,26,0.00,,,0.00,Wunderground v.1.15,2013-06-14 18:45:00,
2013-06-14 11:50:00,81.0,42.9,29.87,SSW,203,1.0,-999.0,26,0.00,,,0.00,Wunderground v.1.15,2013-06-14 18:50:00,
2013-06-14 11:51:00,81.4,43.0,29.87,SSW,202,0.0,-999.0,26,-99.99,,,0.00,weatherlink.com 1.10,2013-06-14 18:51:00,
2013-06-14 11:55:00,81.6,43.4,29.87,SW,225,1.0,-999.0,26,0.00,,,0.00,Wunderground v.1.15,2013-06-14 18:55:00,
2013-06-14 12:00:00,81.6,43.4,29.87,SW,225,1.0,-999.0,26,0.00,,,0.00,Wunderground v.1.15,2013-06-14 19:00:00,
2013-06-14 12:05:00,82.5,43.1,29.87,SW,225,2.0,-999.0,25,0.00,,,0.00,Wunderground v.1.15,2013-06-14 19:05:00,
2013-06-14 12:06:00,82.5,45.0,29.87,SW,222,2.0,-999.0,27,-99.99,,,0.00,weatherlink.com 1.10,2013-06-14 19:06:00,
2013-06-14 12:10:00,82.5,43.1,29.87,SW,225,2.0,-999.0,25,0.00,,,0.00,Wunderground v.1.15,2013-06-14 19:10:00,
2013-06-14 12:15:00,82.6,42.1,29.87,SW,225,3.0,-999.0,24,0.00,,,0.00,Wunderground v.1.15,2013-06-14 19:15:00,
2013-06-14 12:20:00,82.4,41.0,29.87,SW,236,5.0,-999.0,23,-99.99,,,0.00,weatherlink.com 1.10,2013-06-14 19:20:00,
2013-06-14 12:25:00,82.3,40.8,29.87,WSW,248,2.0,-999.0,23,0.00,,,0.00,Wunderground v.1.15,2013-06-14 19:25:00,
2013-06-14 12:30:00,82.3,40.8,29.87,WSW,248,2.0,-999.0,23,0.00,,,0.00,Wunderground v.1.15,2013-06-14 19:30:00,
2013-06-14 12:35:00,82.5,39.8,29.87,SW,225,1.0,-999.0,22,0.00,,,0.00,Wunderground v.1.15,2013-06-14 19:35:00,
2013-06-14 12:36:00,82.6,41.0,29.87,SW,221,3.0,-999.0,23,-99.99,,,0.00,weatherlink.com 1.10,2013-06-14 19:36:00,
2013-06-14 12:40:00,82.5,39.8,29.87,SW,225,1.0,-999.0,22,0.00,,,0.00,Wunderground v.1.15,2013-06-14 19:40:00,
2013-06-14 12:45:00,82.4,40.9,29.87,SW,225,1.0,-999.0,23,0.00,,,0.00,Wunderground v.1.15,2013-06-14 19:45:00,
2013-06-14 12:50:00,82.4,40.9,29.87,SW,225,1.0,-999.0,23,0.00,,,0.00,Wunderground v.1.15,2013-06-14 19:50:00,
2013-06-14 12:51:00,82.3,41.0,29.87,SW,230,5.0,-999.0,23,-99.99,,,0.00,weatherlink.com 1.10,2013-06-14 19:51:00,
2013-06-14 12:55:00,82.3,40.8,29.87,SW,225,3.0,-999.0,23,0.00,,,0.00,Wunderground v.1.15,2013-06-14 19:55:00,
2013-06-14 13:00:00,82.3,40.8,29.87,SW,225,3.0,-999.0,23,0.00,,,0.00,Wunderground v.1.15,2013-06-14 20:00:00,
2013-06-14 13:05:00,82.5,41.0,29.87,SW,225,2.0,-999.0,23,0.00,,,0.00,Wunderground v.1.15,2013-06-14 20:05:00,
2013-06-14 13:06:00,82.5,43.0,29.87,SW,220,4.0,-999.0,25,-99.99,,,0.00,weatherlink.com 1.10,2013-06-14 20:06:00,
2013-06-14 13:10:00,82.5,41.0,29.87,SW,225,2.0,-999.0,23,0.00,,,0.00,Wunderground v.1.15,2013-06-14 20:10:00,
2013-06-14 13:15:00,82.7,42.2,29.86,SW,225,1.0,-999.0,24,0.00,,,0.00,Wunderground v.1.15,2013-06-14 20:15:00,
2013-06-14 13:20:00,82.9,43.0,29.86,SW,225,2.0,-999.0,24,-99.99,,,0.00,weatherlink.com 1.10,2013-06-14 20:20:00,
2013-06-14 13:25:00,83.0,42.5,29.86,SW,225,2.0,-999.0,24,0.00,,,0.00,Wunderground v.1.15,2013-06-14 20:25:00,
2013-06-14 13:30:00,83.0,42.5,29.86,SW,225,2.0,-999.0,24,0.00,,,0.00,Wunderground v.1.15,2013-06-14 20:30:00,
2013-06-14 13:35:00,83.2,41.5,29.86,SW,225,2.0,-999.0,23,0.00,,,0.00,Wunderground v.1.15,2013-06-14 20:35:00,
2013-06-14 13:36:00,83.2,43.0,29.86,SW,229,3.0,-999.0,24,-99.99,,,0.00,weatherlink.com 1.10,2013-06-14 20:36:00,
2013-06-14 13:40:00,83.2,41.5,29.86,SW,225,2.0,-999.0,23,0.00,,,0.00,Wunderground v.1.15,2013-06-14 20:40:00,
2013-06-14 13:45:00,83.1,42.6,29.86,SW,225,2.0,-999.0,24,0.00,,,0.00,Wunderground v.1.15,2013-06-14 20:45:00,
2013-06-14 13:50:00,83.1,42.6,29.86,SW,225,2.0,-999.0,24,0.00,,,0.00,Wunderground v.1.15,2013-06-14 20:50:00,
2013-06-14 13:51:00,83.1,46.0,29.86,SW,216,3.0,-999.0,27,-99.99,,,0.00,weatherlink.com 1.10,2013-06-14 20:51:00,
2013-06-14 13:55:00,83.6,41.9,29.86,SW,225,2.0,-999.0,23,0.00,,,0.00,Wunderground v.1.15,2013-06-14 20:55:00,
2013-06-14 14:00:00,83.6,41.9,29.86,SW,225,2.0,-999.0,23,0.00,,,0.00,Wunderground v.1.15,2013-06-14 21:00:00,
2013-06-14 14:05:00,83.9,42.0,29.86,SW,223,4.0,-999.0,23,-99.99,,,0.00,weatherlink.com 1.10,2013-06-14 21:05:00,
2013-06-14 14:10:00,84.0,42.2,29.85,SW,225,2.0,-999.0,23,0.00,,,0.00,Wunderground v.1.15,2013-06-14 21:10:00,
2013-06-14 14:15:00,84.2,42.4,29.85,SW,225,1.0,-999.0,23,0.00,,,0.00,Wunderground v.1.15,2013-06-14 21:15:00,
2013-06-14 14:20:00,84.3,41.0,29.86,SW,227,2.0,-999.0,22,-99.99,,,0.00,weatherlink.com 1.10,2013-06-14 21:20:00,
2013-06-14 14:25:00,84.6,43.8,29.85,SW,225,1.0,-999.0,24,0.00,,,0.00,Wunderground v.1.15,2013-06-14 21:25:00,
2013-06-14 14:30:00,84.6,43.8,29.85,SW,225,1.0,-999.0,24,0.00,,,0.00,Wunderground v.1.15,2013-06-14 21:30:00,
2013-06-14 14:35:00,85.8,43.7,29.85,SW,225,2.0,-999.0,23,0.00,,,0.00,Wunderground v.1.15,2013-06-14 21:35:00,
2013-06-14 14:36:00,85.9,44.0,29.85,SW,223,0.0,-999.0,23,-99.99,,,0.00,weatherlink.com 1.10,2013-06-14 21:36:00,
2013-06-14 14:40:00,85.8,43.7,29.85,SW,225,2.0,-999.0,23,0.00,,,0.00,Wunderground v.1.15,2013-06-14 21:40:00,
2013-06-14 14:45:00,86.3,41.8,29.84,SW,225,2.0,-999.0,21,0.00,,,0.00,Wunderground v.1.15,2013-06-14 21:45:00,
2013-06-14 14:50:00,86.3,41.8,29.84,SW,225,2.0,-999.0,21,0.00,,,0.00,Wunderground v.1.15,2013-06-14 21:50:00,
2013-06-14 14:55:00,86.1,41.6,29.84,SW,225,2.0,-999.0,21,0.00,,,0.00,Wunderground v.1.15,2013-06-14 21:55:00,
2013-06-14 15:00:00,86.1,41.6,29.84,SW,225,2.0,-999.0,21,0.00,,,0.00,Wunderground v.1.15,2013-06-14 22:00:00,
2013-06-14 15:05:00,86.3,41.8,29.84,SW,225,2.0,-999.0,21,0.00,,,0.00,Wunderground v.1.15,2013-06-14 22:05:00,
2013-06-14 15:06:00,86.4,43.0,29.84,SW,231,4.0,-999.0,22,-99.99,,,0.00,weatherlink.com 1.10,2013-06-14 22:06:00,
2013-06-14 15:10:00,86.3,41.8,29.84,SW,225,2.0,-999.0,21,0.00,,,0.00,Wunderground v.1.15,2013-06-14 22:10:00,
2013-06-14 15:15:00,86.6,42.0,29.84,SW,225,2.0,-999.0,21,0.00,,,0.00,Wunderground v.1.15,2013-06-14 22:15:00,
2013-06-14 15:20:00,86.6,42.0,29.84,SW,225,2.0,-999.0,21,0.00,,,0.00,Wunderground v.1.15,2013-06-14 22:20:00,
2013-06-14 15:21:00,86.9,44.0,29.84,SW,227,0.0,-999.0,22,-99.99,,,0.00,weatherlink.com 1.10,2013-06-14 22:21:00,
2013-06-14 15:25:00,86.9,41.0,29.83,SW,225,2.0,-999.0,20,0.00,,,0.00,Wunderground v.1.15,2013-06-14 22:25:00,
2013-06-14 15:30:00,86.9,41.0,29.83,SW,225,2.0,-999.0,20,0.00,,,0.00,Wunderground v.1.15,2013-06-14 22:30:00,
2013-06-14 15:35:00,86.5,40.7,29.83,SW,225,2.0,-999.0,20,0.00,,,0.00,Wunderground v.1.15,2013-06-14 22:35:00,
2013-06-14 15:36:00,86.5,41.0,29.83,SW,221,1.0,-999.0,20,-99.99,,,0.00,weatherlink.com 1.10,2013-06-14 22:36:00,
2013-06-14 15:40:00,86.5,40.7,29.83,SW,225,2.0,-999.0,20,0.00,,,0.00,Wunderground v.1.15,2013-06-14 22:40:00,
2013-06-14 15:45:00,87.1,39.8,29.83,SW,225,2.0,-999.0,19,0.00,,,0.00,Wunderground v.1.15,2013-06-14 22:45:00,
2013-06-14 15:50:00,87.1,39.8,29.83,SW,225,2.0,-999.0,19,0.00,,,0.00,Wunderground v.1.15,2013-06-14 22:50:00,
2013-06-14 15:51:00,87.2,40.0,29.83,SW,226,4.0,-999.0,19,-99.99,,,0.00,weatherlink.com 1.10,2013-06-14 22:51:00,
2013-06-14 15:55:00,87.4,41.4,29.83,SW,225,2.0,-999.0,20,0.00,,,0.00,Wunderground v.1.15,2013-06-14 22:55:00,
2013-06-14 16:00:00,87.4,41.4,29.83,SW,225,2.0,-999.0,20,0.00,,,0.00,Wunderground v.1.15,2013-06-14 23:00:00,
2013-06-14 16:05:00,87.8,43.0,29.82,SW,225,1.0,-999.0,21,0.00,,,0.00,Wunderground v.1.15,2013-06-14 23:05:00,
2013-06-14 16:06:00,87.9,42.0,29.82,SW,226,0.0,-999.0,20,-99.99,,,0.00,weatherlink.com 1.10,2013-06-14 23:06:00,
2013-06-14 16:10:00,87.8,43.0,29.82,SW,225,1.0,-999.0,21,0.00,,,0.00,Wunderground v.1.15,2013-06-14 23:10:00,
2013-06-14 16:15:00,87.5,40.2,29.82,SW,225,2.0,-999.0,19,0.00,,,0.00,Wunderground v.1.15,2013-06-14 23:15:00,
2013-06-14 16:20:00,87.5,40.2,29.82,SW,225,2.0,-999.0,19,0.00,,,0.00,Wunderground v.1.15,2013-06-14 23:20:00,
2013-06-14 16:21:00,87.5,40.0,29.82,SW,228,0.0,-999.0,19,-99.99,,,0.00,weatherlink.com 1.10,2013-06-14 23:21:00,
2013-06-14 16:25:00,88.0,37.7,29.82,SW,225,2.0,-999.0,17,0.00,,,0.00,Wunderground v.1.15,2013-06-14 23:25:00,
2013-06-14 16:30:00,88.0,37.7,29.82,SW,225,2.0,-999.0,17,0.00,,,0.00,Wunderground v.1.15,2013-06-14 23:30:00,
2013-06-14 16:35:00,87.7,38.9,29.81,WSW,248,2.0,-999.0,18,0.00,,,0.00,Wunderground v.1.15,2013-06-14 23:35:00,
2013-06-14 16:36:00,87.8,39.0,29.82,WSW,245,5.0,-999.0,18,-99.99,,,0.00,weatherlink.com 1.10,2013-06-14 23:36:00,
2013-06-14 16:40:00,87.7,38.9,29.81,WSW,248,2.0,-999.0,18,0.00,,,0.00,Wunderground v.1.15,2013-06-14 23:40:00,
2013-06-14 16:45:00,87.0,36.9,29.81,WSW,248,1.0,-999.0,17,0.00,,,0.00,Wunderground v.1.15,2013-06-14 23:45:00,
2013-06-14 16:50:00,87.0,36.9,29.81,WSW,248,1.0,-999.0,17,0.00,,,0.00,Wunderground v.1.15,2013-06-14 23:50:00,
2013-06-14 16:51:00,86.9,37.0,29.81,WSW,249,2.0,-999.0,17,-99.99,,,0.00,weatherlink.com 1.10,2013-06-14 23:51:00,
2013-06-14 16:55:00,86.8,39.6,29.81,WSW,248,1.0,-999.0,19,0.00,,,0.00,Wunderground v.1.15,2013-06-14 23:55:00,
2013-06-14 17:00:00,86.8,39.6,29.81,WSW,248,1.0,-999.0,19,0.00,,,0.00,Wunderground v.1.15,2013-06-15 00:00:00,
2013-06-14 17:05:00,87.1,39.8,29.81,WSW,248,1.0,-999.0,19,0.00,,,0.00,Wunderground v.1.15,2013-06-15 00:05:00,
2013-06-14 17:07:00,87.2,39.0,29.81,WSW,253,0.0,-999.0,18,-99.99,,,0.00,weatherlink.com 1.10,2013-06-15 00:07:00,
2013-06-14 17:10:00,87.1,39.8,29.81,WSW,248,1.0,-999.0,19,0.00,,,0.00,Wunderground v.1.15,2013-06-15 00:10:00,
2013-06-14 17:15:00,87.5,38.8,29.80,WSW,248,2.0,-999.0,18,0.00,,,0.00,Wunderground v.1.15,2013-06-15 00:15:00,
2013-06-14 17:20:00,87.5,38.8,29.80,WSW,248,2.0,-999.0,18,0.00,,,0.00,Wunderground v.1.15,2013-06-15 00:20:00,
2013-06-14 17:21:00,87.4,39.0,29.80,WSW,250,0.0,-999.0,18,-99.99,,,0.00,weatherlink.com 1.10,2013-06-15 00:21:00,
2013-06-14 17:25:00,87.5,38.8,29.80,WSW,248,2.0,-999.0,18,0.00,,,0.00,Wunderground v.1.15,2013-06-15 00:25:00,
2013-06-14 17:30:00,87.5,38.8,29.80,WSW,248,2.0,-999.0,18,0.00,,,0.00,Wunderground v.1.15,2013-06-15 00:30:00,
2013-06-14 17:35:00,87.5,38.8,29.80,WSW,248,2.0,-999.0,18,0.00,,,0.00,Wunderground v.1.15,2013-06-15 00:35:00,
2013-06-14 17:40:00,87.5,38.8,29.80,WSW,248,2.0,-999.0,18,0.00,,,0.00,Wunderground v.1.15,2013-06-15 00:40:00,
2013-06-14 17:45:00,87.5,37.3,29.80,WSW,248,0.0,-999.0,17,0.00,,,0.00,Wunderground v.1.15,2013-06-15 00:45:00,
2013-06-14 17:46:00,87.6,38.0,29.80,WSW,250,0.0,-999.0,17,-99.99,,,0.00,weatherlink.com 1.10,2013-06-15 00:46:00,
2013-06-14 17:50:00,87.5,37.3,29.80,WSW,248,0.0,-999.0,17,0.00,,,0.00,Wunderground v.1.15,2013-06-15 00:50:00,
2013-06-14 17:55:00,87.5,37.3,29.80,WSW,248,0.0,-999.0,17,0.00,,,0.00,Wunderground v.1.15,2013-06-15 00:55:00,
2013-06-14 18:00:00,87.5,37.3,29.80,WSW,248,0.0,-999.0,17,0.00,,,0.00,Wunderground v.1.15,2013-06-15 01:00:00,
2013-06-14 18:03:00,87.6,38.0,29.80,WSW,250,0.0,-999.0,17,-99.99,,,0.00,weatherlink.com 1.10,2013-06-15 01:03:00,
2013-06-14 18:05:00,87.5,37.3,29.80,WSW,248,0.0,-999.0,17,0.00,,,0.00,Wunderground v.1.15,2013-06-15 01:05:00,
2013-06-14 18:10:00,89.6,37.5,29.79,SW,225,1.0,-999.0,16,0.00,,,0.00,Wunderground v.1.15,2013-06-15 01:10:00,
2013-06-14 18:15:00,89.2,39.0,29.79,SW,215,0.0,-999.0,17,-99.99,,,0.00,weatherlink.com 1.10,2013-06-15 01:15:00,
2013-06-14 18:20:00,88.9,39.9,29.78,SW,225,0.0,-999.0,18,0.00,,,0.00,Wunderground v.1.15,2013-06-15 01:20:00,
2013-06-14 18:25:00,86.7,38.1,29.78,SW,225,0.0,-999.0,18,0.00,,,0.00,Wunderground v.1.15,2013-06-15 01:25:00,
2013-06-14 18:26:00,86.8,41.0,29.78,SW,215,0.0,-999.0,20,-99.99,,,0.00,weatherlink.com 1.10,2013-06-15 01:26:00,
2013-06-14 18:30:00,86.7,38.1,29.78,SW,225,0.0,-999.0,18,0.00,,,0.00,Wunderground v.1.15,2013-06-15 01:30:00,
2013-06-14 18:35:00,84.9,39.3,29.78,SW,225,1.0,-999.0,20,0.00,,,0.00,Wunderground v.1.15,2013-06-15 01:35:00,
2013-06-14 18:37:00,84.7,39.0,29.78,SW,215,1.0,-999.0,20,-99.99,,,0.00,weatherlink.com 1.10,2013-06-15 01:37:00,
2013-06-14 18:40:00,84.9,39.3,29.78,SW,225,1.0,-999.0,20,0.00,,,0.00,Wunderground v.1.15,2013-06-15 01:40:00,
2013-06-14 18:45:00,84.0,38.6,29.78,SW,225,1.0,-999.0,20,0.00,,,0.00,Wunderground v.1.15,2013-06-15 01:45:00,
2013-06-14 18:50:00,84.0,38.6,29.78,SW,225,1.0,-999.0,20,0.00,,,0.00,Wunderground v.1.15,2013-06-15 01:50:00,
2013-06-14 18:52:00,83.5,38.0,29.78,SW,223,0.0,-999.0,20,-99.99,,,0.00,weatherlink.com 1.10,2013-06-15 01:52:00,
2013-06-14 18:55:00,83.1,39.1,29.78,SW,225,1.0,-999.0,21,0.00,,,0.00,Wunderground v.1.15,2013-06-15 01:55:00,
2013-06-14 19:00:00,83.1,39.1,29.78,SW,225,1.0,-999.0,21,0.00,,,0.00,Wunderground v.1.15,2013-06-15 02:00:00,
2013-06-14 19:05:00,82.0,39.4,29.78,SW,225,0.0,-999.0,22,0.00,,,0.00,Wunderground v.1.15,2013-06-15 02:05:00,
2013-06-14 19:07:00,81.9,41.0,29.78,SW,226,0.0,-999.0,23,-99.99,,,0.00,weatherlink.com 1.10,2013-06-15 02:07:00,
2013-06-14 19:10:00,82.0,39.4,29.78,SW,225,0.0,-999.0,22,0.00,,,0.00,Wunderground v.1.15,2013-06-15 02:10:00,
2013-06-14 19:15:00,81.0,40.8,29.78,SW,225,0.0,-999.0,24,0.00,,,0.00,Wunderground v.1.15,2013-06-15 02:15:00,
2013-06-14 19:20:00,81.0,40.8,29.78,SW,225,0.0,-999.0,24,0.00,,,0.00,Wunderground v.1.15,2013-06-15 02:20:00,
2013-06-14 19:22:00,80.6,41.0,29.79,SW,226,0.0,-999.0,24,-99.99,,,0.00,weatherlink.com 1.10,2013-06-15 02:22:00,
2013-06-14 19:25:00,80.3,41.3,29.78,SW,225,0.0,-999.0,25,0.00,,,0.00,Wunderground v.1.15,2013-06-15 02:25:00,
2013-06-14 19:30:00,80.3,41.3,29.78,SW,225,0.0,-999.0,25,0.00,,,0.00,Wunderground v.1.15,2013-06-15 02:30:00,
2013-06-14 19:35:00,79.6,42.7,29.79,SW,225,0.0,-999.0,27,0.00,,,0.00,Wunderground v.1.15,2013-06-15 02:35:00,
2013-06-14 19:37:00,79.5,43.0,29.79,SW,226,0.0,-999.0,27,-99.99,,,0.00,weatherlink.com 1.10,2013-06-15 02:37:00,
2013-06-14 19:40:00,79.6,42.7,29.79,SW,225,0.0,-999.0,27,0.00,,,0.00,Wunderground v.1.15,2013-06-15 02:40:00,
2013-06-14 19:45:00,78.6,43.7,29.79,SW,225,0.0,-999.0,29,0.00,,,0.00,Wunderground v.1.15,2013-06-15 02:45:00,
2013-06-14 19:50:00,78.6,43.7,29.79,SW,225,0.0,-999.0,29,0.00,,,0.00,Wunderground v.1.15,2013-06-15 02:50:00,
2013-06-14 19:52:00,77.8,43.0,29.79,SW,226,0.0,-999.0,29,-99.99,,,0.00,weatherlink.com 1.10,2013-06-15 02:52:00,
2013-06-14 19:55:00,77.3,45.1,29.79,N/A,-737280,0.0,-999.0,32,0.00,,,0.00,Wunderground v.1.15,2013-06-15 02:55:00,
2013-06-14 20:00:00,77.3,45.1,29.79,N/A,-737280,0.0,-999.0,32,0.00,,,0.00,Wunderground v.1.15,2013-06-15 03:00:00,
2013-06-14 20:05:00,76.2,46.5,29.79,N/A,-737280,0.0,-999.0,35,0.00,,,0.00,Wunderground v.1.15,2013-06-15 03:05:00,
2013-06-14 20:07:00,76.2,46.0,29.79,SW,226,0.0,-999.0,34,-99.99,,,0.00,weatherlink.com 1.10,2013-06-15 03:07:00,
2013-06-14 20:10:00,76.2,46.5,29.79,N/A,-737280,0.0,-999.0,35,0.00,,,0.00,Wunderground v.1.15,2013-06-15 03:10:00,
2013-06-14 20:15:00,75.0,46.2,29.79,SW,225,0.0,-999.0,36,0.00,,,0.00,Wunderground v.1.15,2013-06-15 03:15:00,
2013-06-14 20:20:00,75.0,46.2,29.79,SW,225,0.0,-999.0,36,0.00,,,0.00,Wunderground v.1.15,2013-06-15 03:20:00,
2013-06-14 20:25:00,73.6,45.7,29.79,N/A,-737280,0.0,-999.0,37,0.00,,,0.00,Wunderground v.1.15,2013-06-15 03:25:00,
2013-06-14 20:30:00,73.6,45.7,29.79,N/A,-737280,0.0,-999.0,37,0.00,,,0.00,Wunderground v.1.15,2013-06-15 03:30:00,
2013-06-14 20:35:00,72.3,45.9,29.79,N/A,-737280,0.0,-999.0,39,0.00,,,0.00,Wunderground v.1.15,2013-06-15 03:35:00,
2013-06-14 20:40:00,72.3,45.9,29.79,N/A,-737280,0.0,-999.0,39,0.00,,,0.00,Wunderground v.1.15,2013-06-15 03:40:00,
2013-06-14 20:45:00,70.9,46.0,29.79,N/A,-737280,0.0,-999.0,41,0.00,,,0.00,Wunderground v.1.15,2013-06-15 03:45:00,
2013-06-14 20:50:00,70.9,46.0,29.79,N/A,-737280,0.0,-999.0,41,0.00,,,0.00,Wunderground v.1.15,2013-06-15 03:50:00,
2013-06-14 20:55:00,69.5,46.0,29.79,N/A,-737280,0.0,-999.0,43,0.00,,,0.00,Wunderground v.1.15,2013-06-15 03:55:00,
2013-06-14 21:00:00,69.5,46.0,29.79,N/A,-737280,0.0,-999.0,43,0.00,,,0.00,Wunderground v.1.15,2013-06-15 04:00:00,
2013-06-14 21:05:00,68.2,46.0,29.79,N/A,-737280,0.0,-999.0,45,0.00,,,0.00,Wunderground v.1.15,2013-06-15 04:05:00,
2013-06-14 21:10:00,68.2,46.0,29.79,N/A,-737280,0.0,-999.0,45,0.00,,,0.00,Wunderground v.1.15,2013-06-15 04:10:00,
2013-06-14 21:15:00,67.0,45.5,29.79,N/A,-737280,0.0,-999.0,46,0.00,,,0.00,Wunderground v.1.15,2013-06-15 04:15:00,
2013-06-14 21:20:00,67.0,45.5,29.79,N/A,-737280,0.0,-999.0,46,0.00,,,0.00,Wunderground v.1.15,2013-06-15 04:20:00,
2013-06-14 21:25:00,65.9,45.6,29.80,SW,225,0.0,-999.0,48,0.00,,,0.00,Wunderground v.1.15,2013-06-15 04:25:00,
2013-06-14 21:30:00,65.9,45.6,29.80,SW,225,0.0,-999.0,48,0.00,,,0.00,Wunderground v.1.15,2013-06-15 04:30:00,
2013-06-14 21:35:00,64.9,45.3,29.80,SW,225,0.0,-999.0,49,0.00,,,0.00,Wunderground v.1.15,2013-06-15 04:35:00,
2013-06-14 21:40:00,64.9,45.3,29.80,SW,225,0.0,-999.0,49,0.00,,,0.00,Wunderground v.1.15,2013-06-15 04:40:00,
2013-06-14 21:45:00,64.0,45.5,29.80,N/A,-737280,0.0,-999.0,51,0.00,,,0.00,Wunderground v.1.15,2013-06-15 04:45:00,
2013-06-14 21:50:00,64.0,45.5,29.80,N/A,-737280,0.0,-999.0,51,0.00,,,0.00,Wunderground v.1.15,2013-06-15 04:50:00,
2013-06-14 21:55:00,63.2,45.3,29.81,N/A,-737280,0.0,-999.0,52,0.00,,,0.00,Wunderground v.1.15,2013-06-15 04:55:00,
2013-06-14 22:00:00,63.2,45.3,29.81,N/A,-737280,0.0,-999.0,52,0.00,,,0.00,Wunderground v.1.15,2013-06-15 05:00:00,
2013-06-14 22:05:00,62.5,44.6,29.81,N/A,-737280,0.0,-999.0,52,0.00,,,0.00,Wunderground v.1.15,2013-06-15 05:05:00,
2013-06-14 22:10:00,62.5,44.6,29.81,N/A,-737280,0.0,-999.0,52,0.00,,,0.00,Wunderground v.1.15,2013-06-15 05:10:00,
2013-06-14 22:15:00,61.9,44.6,29.81,N/A,-737280,0.0,-999.0,53,0.00,,,0.00,Wunderground v.1.15,2013-06-15 05:15:00,
2013-06-14 22:20:00,61.9,44.6,29.81,N/A,-737280,0.0,-999.0,53,0.00,,,0.00,Wunderground v.1.15,2013-06-15 05:20:00,
2013-06-14 22:25:00,61.3,45.0,29.81,N/A,-737280,0.0,-999.0,55,0.00,,,0.00,Wunderground v.1.15,2013-06-15 05:25:00,
2013-06-14 22:30:00,61.3,45.0,29.81,N/A,-737280,0.0,-999.0,55,0.00,,,0.00,Wunderground v.1.15,2013-06-15 05:30:00,
2013-06-14 22:35:00,60.6,44.3,29.81,N/A,-737280,0.0,-999.0,55,0.00,,,0.00,Wunderground v.1.15,2013-06-15 05:35:00,
2013-06-14 22:40:00,60.6,44.3,29.81,N/A,-737280,0.0,-999.0,55,0.00,,,0.00,Wunderground v.1.15,2013-06-15 05:40:00,
2013-06-14 22:45:00,60.1,44.8,29.81,N/A,-737280,0.0,-999.0,57,0.00,,,0.00,Wunderground v.1.15,2013-06-15 05:45:00,
2013-06-14 22:50:00,60.1,44.8,29.81,N/A,-737280,0.0,-999.0,57,0.00,,,0.00,Wunderground v.1.15,2013-06-15 05:50:00,
2013-06-14 22:55:00,59.6,44.8,29.81,N/A,-737280,0.0,-999.0,58,0.00,,,0.00,Wunderground v.1.15,2013-06-15 05:55:00,
2013-06-14 23:00:00,59.6,44.8,29.81,N/A,-737280,0.0,-999.0,58,0.00,,,0.00,Wunderground v.1.15,2013-06-15 06:00:00,
2013-06-14 23:05:00,59.1,44.8,29.80,N/A,-737280,0.0,-999.0,59,0.00,,,0.00,Wunderground v.1.15,2013-06-15 06:05:00,
2013-06-14 23:10:00,59.1,44.8,29.80,N/A,-737280,0.0,-999.0,59,0.00,,,0.00,Wunderground v.1.15,2013-06-15 06:10:00,
2013-06-14 23:15:00,58.7,44.4,29.80,N/A,-737280,0.0,-999.0,59,0.00,,,0.00,Wunderground v.1.15,2013-06-15 06:15:00,
2013-06-14 23:20:00,58.7,44.4,29.80,N/A,-737280,0.0,-999.0,59,0.00,,,0.00,Wunderground v.1.15,2013-06-15 06:20:00,
2013-06-14 23:25:00,58.3,44.9,29.80,N/A,-737280,0.0,-999.0,61,0.00,,,0.00,Wunderground v.1.15,2013-06-15 06:25:00,
2013-06-14 23:30:00,58.3,44.9,29.80,N/A,-737280,0.0,-999.0,61,0.00,,,0.00,Wunderground v.1.15,2013-06-15 06:30:00,
2013-06-14 23:35:00,57.9,44.5,29.80,N/A,-737280,0.0,-999.0,61,0.00,,,0.00,Wunderground v.1.15,2013-06-15 06:35:00,
2013-06-14 23:40:00,57.9,44.5,29.80,N/A,-737280,0.0,-999.0,61,0.00,,,0.00,Wunderground v.1.15,2013-06-15 06:40:00,
2013-06-14 23:45:00,57.5,44.6,29.80,N/A,-737280,0.0,-999.0,62,0.00,,,0.00,Wunderground v.1.15,2013-06-15 06:45:00,
2013-06-14 23:50:00,57.5,44.6,29.80,N/A,-737280,0.0,-999.0,62,0.00,,,0.00,Wunderground v.1.15,2013-06-15 06:50:00,
2013-06-14 23:55:00,57.1,44.6,29.80,N/A,-737280,0.0,-999.0,63,0.00,,,0.00,Wunderground v.1.15,2013-06-15 06:55:00,